スペースウォッチ-ボアッティーニ彗星

P/2011 JB15 ( Spacewatch-Boattini )

English version
Home page
Updated on February 6, 2012

---------------------------------------------------------------------

・ プロフィール

発見日 2011年5月8日、28日
発見光度 19.6等、19.1等
発見者 Spacewatch survey, A. Boattini (Mt. Lemmon)

・ 写真集

・ 軌道要素

Epoch 2012 Feb. 3.0 TT = JDT 2455960.5
T 2012 Jan. 20.16821 TT                                 MPC
q   5.0199201            (2000.0)            P               Q
n   0.04937672     Peri.  110.77842     -0.07237399     +0.98678181
a   7.3584760      Node   153.75689     -0.99272325     -0.05724282
e   0.3178044      Incl.   19.14195     -0.09624213     -0.15160776
P  20.0
From 103 observations 2011 Apr. 30-Oct. 2, mean residual 0".5.

・ 光度変化

        m1 = 8.5 + 5 logΔ + 10.0 log r

---------------------------------------------------------------------

軌道要素はM.P.E.C. 2012-C24に掲載されたものです。
光度グラフはComet for Windowsで作成したものです。

---------------------------------------------------------------------

Copyright(C) Seiichi Yoshida (comet@aerith.net). All rights reserved.